This demonstration page uses our WeatherBlox Daily Observations layout. Learn more.

Left ArrowRight Arrow

Hourly Observations for February 16, 2020

Temp ( °F °C ) Dew Point ( °F °C ) Humidity (%) Winds ( mph kmh ) Pressure ( in mb ) Visibility ( mi km ) Precip ( " mm )
12:53 am 00:53 Mostly Clear 30 -1.1 21 -6.1 69 69 WSW 6 9 29.82 1010 10 16 0.00 0.00
1:53 am 01:53 Mostly Cloudy 30 -1.1 21 -6.1 69 69 WSW 5 7 29.80 1009 10 16 0.00 0.00
2:53 am 02:53 Cloudy 33 0.6 23 -5 66 66 W 7 11 29.79 1009 10 16 0.00 0.00
3:53 am 03:53 Cloudy 33 0.6 24 -4.4 70 70 WSW 14 22 29.79 1009 10 16 0.00 0.00
4:36 am 04:36 Cloudy with Light Snow 32 0 28 -2 87 87 WNW 7 11 29.83 1010 3 4 0.00 0.00
4:43 am 04:43 Cloudy with Light Snow 31 -0.6 28 -2.2 89 89 W 6 9 29.84 1010 4 6 0.00 0.00
4:53 am 04:53 Cloudy with Light Snow 31 -0.6 29 -1.7 92 92 WNW 3 6 29.80 1009 3 5 0.01 0.25
5:53 am 05:53 Cloudy 28 -2.2 27 -2.8 96 96 S 7 11 29.79 1009 10 16 0.00 0.00
6:53 am 06:53 Mostly Cloudy 28 -2.2 27 -2.8 96 96 SSE 3 6 29.78 1008 10 16 0.00 0.00
7:53 am 07:53 Mostly Cloudy 25 -3.9 22 -5.6 88 88 Calm 29.78 1009 10 16 0.00 0.00
8:53 am 08:53 Mostly Sunny 30 -1.1 26 -3.3 85 85 W 5 7 29.78 1009 10 16 0.00 0.00
9:53 am 09:53 Sunny 34 1.1 28 -2.2 79 79 SW 9 15 29.78 1009 10 16 0.00 0.00
10:53 am 10:53 Mostly Cloudy 38 3.3 28 -2.2 68 68 WSW 16 26 29.78 1009 10 16 0.00 0.00
11:53 am 11:53 Cloudy 36 2.2 30 -1.1 79 79 WSW 17 28 29.79 1009 10 16 0.00 0.00
12:53 pm 12:53 Cloudy 37 2.8 31 -0.6 79 79 WSW 13 20 29.78 1009 10 16 0.00 0.00
1:28 pm 13:28 Mostly Cloudy 38 3.3 30 -1.1 73 73 WNW 15 24 29.78 1008 10 16 0.00 0.00
1:38 pm 13:38 Partly Cloudy 39 3.9 29 -1.7 67 67 WNW 13 20 29.77 1008 10 16 0.00 0.00
1:53 pm 13:53 Partly Cloudy 38 3.3 28 -2.2 68 68 NW 12 19 29.78 1008 10 16 0.00 0.00
2:53 pm 14:53 Cloudy 36 2.2 28 -2.2 73 73 N 7 11 29.79 1009 10 16 0.00 0.00
3:23 pm 15:23 Cloudy with Light Snow 35 1.7 28 -2.2 76 76 NE 5 7 29.82 1010 4 6 0.00 0.00
3:33 pm 15:33 Cloudy 35 1.7 28 -2.2 76 76 NE 6 9 29.82 1010 9 14 0.00 0.00
3:53 pm 15:53 Cloudy 35 1.7 28 -2.2 76 76 NE 7 11 29.82 1010 10 16 0.00 0.00
4:53 pm 16:53 Mostly Sunny 34 1.1 28 -2.2 79 79 Calm 29.83 1010 10 16 0.00 0.00
5:53 pm 17:53 Partly Cloudy 31 -0.6 26 -3.3 82 82 N 7 11 29.88 1012 10 16 0.00 0.00
6:53 pm 18:53 Mostly Clear 29 -1.7 22 -5.6 75 75 NNE 5 7 29.91 1013 10 16 0.00 0.00
7:53 pm 19:53 Mostly Clear 27 -2.8 21 -6.1 78 78 NNW 5 7 29.96 1014 10 16 0.00 0.00
8:53 pm 20:53 Clear 24 -4.4 21 -6.1 88 88 Calm 29.97 1015 10 16 0.00 0.00
9:53 pm 21:53 Partly Cloudy 21 -6.1 19 -7.2 92 92 Calm 29.98 1015 10 16 0.00 0.00
10:53 pm 22:53 Mostly Cloudy 20 -6.7 17 -8.3 89 89 SSE 3 6 29.99 1016 10 16 0.00 0.00
11:53 pm 23:53 Clear 19 -7.2 16 -8.9 88 88 SW 7 11 30.01 1016 10 16 0.00 0.00

Powered by AerisWeather